Location: Unspecified
(0.0000°N, 0.0000°E)
Time: 09:52:39
(UTC+01:00)

Delta 168 - Visible Passes

Search period start: 03 March 2015 00:00
Search period end: 13 March 2015 00:00
Orbit: 395 x 2098 km, 25.3° (Epoch: 02 March)

Date Brightness Start Highest point End Pass type
(mag) Time Alt. Az. Time Alt. Az. Time Alt. Az.
03 Mar 6.7 03:21:12 27° ENE 03:21:12 27° ENE 03:25:19 10° ENE visible
03 Mar 5.8 05:11:34 42° NW 05:13:19 43° NNW 05:23:15 10° NE visible
04 Mar 6.9 03:15:57 24° ENE 03:15:57 24° ENE 03:19:25 10° ENE visible
04 Mar 5.9 05:06:19 39° NW 05:07:23 39° NNW 05:17:24 10° NE visible
05 Mar 7.0 03:10:35 20° NE 03:10:35 20° NE 03:13:27 10° NE visible
05 Mar 6.1 05:00:57 36° NNW 05:01:27 36° NNW 05:11:29 10° NE visible
06 Mar 7.2 03:05:07 18° NE 03:05:07 18° NE 03:07:23 10° NE visible
06 Mar 6.2 04:55:28 33° NNW 04:55:32 33° NNW 05:05:30 10° NE visible
06 Mar 6.7 06:49:50 10° NW 06:56:46 17° NNW 07:02:29 10° NNE visible
07 Mar 7.3 02:59:32 15° NE 02:59:32 15° NE 03:01:13 10° NE visible
07 Mar 6.3 04:49:53 30° NNW 04:49:53 30° NNW 04:59:29 10° NE visible
07 Mar 6.8 06:44:12 10° NW 06:51:08 17° N 06:56:57 10° NNE visible
08 Mar 7.4 02:53:53 13° NE 02:53:53 13° NE 02:55:00 10° NE visible
08 Mar 6.5 04:44:13 28° NNW 04:44:13 28° NNW 04:53:26 10° NE visible
08 Mar 6.9 06:38:28 10° NW 06:45:29 17° N 06:51:28 10° NNE visible
09 Mar 7.5 02:48:10 12° NE 02:48:10 12° NE 02:48:42 10° NE visible
09 Mar 6.6 04:38:29 26° N 04:38:29 26° N 04:47:21 10° NE visible
09 Mar 6.9 06:32:38 10° NW 06:39:49 17° N 06:46:02 10° NNE visible
10 Mar 6.7 04:32:42 24° N 04:32:42 24° N 04:41:15 10° NE visible
10 Mar 6.9 06:26:42 10° NW 06:34:07 17° N 06:40:38 10° NNE visible
11 Mar 6.8 04:26:50 23° N 04:26:50 23° N 04:35:09 10° NE visible
11 Mar 7.0 06:20:40 10° NW 06:28:23 18° N 06:35:17 10° NE visible
12 Mar 6.8 04:20:57 22° N 04:20:57 22° N 04:29:02 10° NE visible
12 Mar 7.0 06:14:31 10° NW 06:22:37 19° N 06:29:56 10° NE visible
12 Mar 5.7 20:14:42 10° SSE 20:15:40 11° SSE 20:16:49 10° SE visible
